{"data":{"norad_id":61681,"epoch":"2026-09-21T08:54:24.431040Z","epoch_age_seconds":113584,"freshness":"FRESH","line1":"1 61681U 24193W   26264.37111610 -.00000108  00000+0  79271-5 0  9991","line2":"2 61681  53.1596 261.5645 0001114 116.1985 243.9132 15.34387598106497","mean_motion":15.34387598,"eccentricity":0.0001114,"inclination_deg":53.1596,"raan_deg":261.5645,"arg_perigee_deg":116.1985,"mean_anomaly_deg":243.9132,"bstar":7.9271e-6,"rev_number":10649,"period_min":93.848516624937,"perigee_km":461.97802810385,"apogee_km":463.50217552213,"semimajor_km":6840.877101813,"source":"CELESTRAK","updated_at":"2026-09-22T09:00:49.404063Z"}}